Simultaneous Nadir Overpasses (SNOs) Predictions

Prediction of SNOs between AQUA and NOAA-19 Satellite Orbit:

Table of predicted SNOs for the next 14.0 days since TLE Epoch: 9/26/2020
Index Date (AQUA) Time (AQUA) Lat,Lon (AQUA) SZA (AQUA ) Date (NOAA-19) Time (NOAA-19) Lat,Lon (NOAA-19) SZA (NOAA-19 ) Distance(km) Time Diff (sec)
1 09/26/2020 17:36:34 -79.50, 69.16 97.99 09/26/2020 17:36:26 -79.51, 69.11 97.96 2.33 8
2 09/28/2020 23:10:18 79.52, 165.59 82.90 09/28/2020 23:09:46 79.49, 165.60 82.88 3.18 32
3 09/28/2020 23:59:45 -79.53, -26.86 97.08 09/29/2020 00:00:41 -79.53, -26.71 97.10 3.11 56
4 10/01/2020 04:44:01 -79.49, -97.68 96.29 10/01/2020 04:42:58 -79.47, -97.74 96.28 2.39 63
5 10/01/2020 05:33:28 79.52, 69.78 83.76 10/01/2020 05:34:00 79.52, 69.94 83.74 3.33 32
6 10/03/2020 11:07:11 -79.49, 166.51 95.43 10/03/2020 11:07:13 -79.49, 166.43 95.43 1.75 2
7 10/05/2020 16:40:54 79.49, -96.93 85.42 10/05/2020 16:40:31 79.48, -96.93 85.41 2.15 23
8 10/05/2020 17:30:21 -79.50, 70.69 94.56 10/05/2020 17:31:28 -79.50, 70.60 94.57 1.81 67
9 10/07/2020 22:14:37 -79.47, -0.20 93.78 10/07/2020 22:13:44 -79.47, -0.17 93.76 0.55 53
